• în Republica Moldova
  • Lista ţărilor
  • Pe 7 zile
  • Temperatura apei
  • Hartă satelitară
  • Meteo pe hartă
  • Widget-uri
  • user-avatar
    Intrare

    Meteo pe oră la Mayrhofen

    Astăzi, 24 Martie, Vineri

    Timp Temperatura Precipitaţii Vânt Presiune Umiditate
    00:00 -1°C° 0 mm 2 m/s 616 mmHg 95%
    01:00 -2°C° 0 mm 2 m/s 617 mmHg 94%
    02:00 -2°C° 0 mm 2 m/s 617 mmHg 94%
    03:00 -2°C° 0 mm 2 m/s 617 mmHg 94%
    04:00 -2°C° 0 mm 2 m/s 617 mmHg 93%
    05:00 -2°C° 0 mm 2 m/s 617 mmHg 93%
    06:00 -2°C° 0 mm 2 m/s 617 mmHg 92%
    07:00 0°C° 0 mm 1 m/s 618 mmHg 92%
    08:00 +2°C° 0 mm 1 m/s 618 mmHg 90%
    09:00 +4°C° 0 mm 1 m/s 619 mmHg 89%
    10:00 +6°C° 0 mm 1 m/s 620 mmHg 87%
    11:00 +7°C° 0 mm 1 m/s 620 mmHg 85%
    12:00 +7°C° 0 mm 1 m/s 620 mmHg 83%
    13:00 +8°C° 0 mm 1 m/s 621 mmHg 81%
    14:00 +8°C° 0 mm 1 m/s 621 mmHg 83%
    15:00 +8°C° 0 mm 1 m/s 620 mmHg 85%
    16:00 +7°C° 0 mm 1 m/s 620 mmHg 86%
    17:00 +6°C° 0 mm 1 m/s 620 mmHg 89%
    18:00 +4°C° 0 mm 1 m/s 619 mmHg 92%
    19:00 +2°C° 0 mm 1 m/s 618 mmHg 96%
    20:00 +1°C° 0 mm 1 m/s 619 mmHg 95%
    21:00 +1°C° 0 mm 1 m/s 619 mmHg 94%
    22:00 +1°C° 0 mm 1 m/s 619 mmHg 94%
    23:00 +1°C° 0 mm 1 m/s 619 mmHg 94%

    Mâine, 25 Martie, Sâmbătă

    Timp Temperatura Precipitaţii Vânt Presiune Umiditate
    00:00 0°C° 0 mm 1 m/s 619 mmHg 94%
    01:00 0°C° 0 mm 1 m/s 619 mmHg 94%
    02:00 0°C° 0 mm 1 m/s 619 mmHg 94%
    03:00 0°C° 0 mm 1 m/s 619 mmHg 94%
    04:00 0°C° 0 mm 1 m/s 618 mmHg 94%
    05:00 0°C° 0 mm 1 m/s 619 mmHg 94%
    06:00 +1°C° 0 mm 1 m/s 619 mmHg 94%
    07:00 +1°C° 0 mm 1 m/s 619 mmHg 93%
    08:00 +3°C° 0 mm 1 m/s 620 mmHg 90%
    09:00 +5°C° 0 mm 1 m/s 620 mmHg 86%
    10:00 +7°C° 0 mm 1 m/s 621 mmHg 82%
    11:00 +8°C° 0 mm 1 m/s 621 mmHg 80%
    12:00 +7°C° 0 mm 2 m/s 621 mmHg 78%
    13:00 +8°C° 0 mm 2 m/s 621 mmHg 76%
    14:00 +8°C° 0 mm 2 m/s 620 mmHg 77%
    15:00 +7°C° 0 mm 2 m/s 620 mmHg 79%
    16:00 +7°C° 0 mm 2 m/s 619 mmHg 80%
    17:00 +5°C° 0 mm 2 m/s 618 mmHg 85%
    18:00 +4°C° 0 mm 1 m/s 617 mmHg 90%
    19:00 +2°C° 0 mm 1 m/s 616 mmHg 95%
    20:00 +2°C° 0 mm 1 m/s 616 mmHg 95%
    21:00 +1°C° 0 mm 1 m/s 616 mmHg 95%
    22:00 +1°C° 0 mm 1 m/s 616 mmHg 94%
    23:00 0°C° 0 mm 1 m/s 616 mmHg 95%

    Poimâine, 26 Martie, Duminică

    Timp Temperatura Precipitaţii Vânt Presiune Umiditate
    00:00 0°C° 0 mm 1 m/s 616 mmHg 95%
    01:00 0°C° 0 mm 1 m/s 615 mmHg 95%
    02:00 -1°C° 0 mm 1 m/s 615 mmHg 95%
    03:00 -1°C° 0 mm 1 m/s 615 mmHg 95%
    04:00 -2°C° 0 mm 1 m/s 614 mmHg 95%
    05:00 -1°C° 0 mm 1 m/s 615 mmHg 94%
    06:00 -1°C° 0 mm 1 m/s 615 mmHg 92%
    07:00 -1°C° 0 mm 1 m/s 615 mmHg 90%
    08:00 +1°C° 0 mm 1 m/s 616 mmHg 86%
    09:00 +3°C° 0 mm 1 m/s 616 mmHg 81%
    10:00 +5°C° 0 mm 1 m/s 617 mmHg 76%
    11:00 +6°C° 0,1 mm 1 m/s 617 mmHg 77%
    12:00 +5°C° 0,1 mm 2 m/s 617 mmHg 77%
    13:00 +5°C° 0,1 mm 2 m/s 617 mmHg 77%
    14:00 +5°C° 0,1 mm 2 m/s 617 mmHg 79%
    15:00 +4°C° 0,1 mm 2 m/s 617 mmHg 81%
    16:00 +4°C° 0,1 mm 2 m/s 617 mmHg 83%
    17:00 +3°C° 0,1 mm 2 m/s 617 mmHg 87%
    18:00 +1°C° 0,1 mm 2 m/s 616 mmHg 91%
    19:00 -1°C° 0,1 mm 2 m/s 616 mmHg 94%
    20:00 0°C° 0 mm 1 m/s 617 mmHg 94%
    21:00 0°C° 0 mm 1 m/s 617 mmHg 94%
    22:00 0°C° 0 mm 1 m/s 617 mmHg 94%
    23:00 -1°C° 0 mm 1 m/s 617 mmHg 94%

    27 Martie, Luni

    Timp Temperatura Precipitaţii Vânt Presiune Umiditate
    00:00 -1°C° 0 mm 1 m/s 617 mmHg 94%
    01:00 -2°C° 0 mm 1 m/s 617 mmHg 94%
    02:00 -3°C° 0 mm 1 m/s 617 mmHg 94%
    03:00 -3°C° 0 mm 1 m/s 616 mmHg 94%
    04:00 -4°C° 0 mm 1 m/s 616 mmHg 94%
    05:00 -3°C° 0 mm 1 m/s 617 mmHg 90%
    06:00 -2°C° 0 mm 1 m/s 617 mmHg 86%
    07:00 -1°C° 0 mm 1 m/s 618 mmHg 82%
    08:00 +1°C° 0 mm 1 m/s 619 mmHg 75%
    09:00 +4°C° 0 mm 1 m/s 620 mmHg 68%
    10:00 +7°C° 0 mm 1 m/s 621 mmHg 61%
    11:00 +8°C° 0 mm 1 m/s 621 mmHg 59%
    12:00 +9°C° 0 mm 1 m/s 621 mmHg 57%
    13:00 +10°C° 0 mm 1 m/s 621 mmHg 55%
    14:00 +9°C° 0 mm 1 m/s 621 mmHg 58%
    15:00 +9°C° 0 mm 1 m/s 621 mmHg 62%
    16:00 +9°C° 0 mm 1 m/s 621 mmHg 65%
    17:00 +5°C° 0 mm 1 m/s 619 mmHg 75%
    18:00 +2°C° 0 mm 1 m/s 618 mmHg 84%
    19:00 -1°C° 0 mm 1 m/s 617 mmHg 94%
    20:00 -1°C° 0 mm 1 m/s 618 mmHg 94%
    21:00 0°C° 0 mm 1 m/s 618 mmHg 94%
    22:00 0°C° 0 mm 1 m/s 619 mmHg 94%
    23:00 0°C° 0 mm 1 m/s 619 mmHg 94%

    28 Martie, Marţi

    Timp Temperatura Precipitaţii Vânt Presiune Umiditate
    00:00 0°C° 0 mm 1 m/s 619 mmHg 94%
    01:00 0°C° 0 mm 1 m/s 619 mmHg 94%
    02:00 0°C° 0 mm 1 m/s 619 mmHg 95%
    03:00 0°C° 0 mm 1 m/s 619 mmHg 95%
    04:00 0°C° 0 mm 1 m/s 619 mmHg 95%
    05:00 0°C° 0 mm 1 m/s 619 mmHg 94%
    06:00 +1°C° 0 mm 1 m/s 620 mmHg 92%
    07:00 +1°C° 0 mm 1 m/s 620 mmHg 91%
    08:00 +4°C° 0 mm 1 m/s 621 mmHg 82%
    09:00 +6°C° 0 mm 1 m/s 622 mmHg 74%
    10:00 +8°C° 0 mm 0 m/s 623 mmHg 65%
    11:00 +9°C° 0 mm 1 m/s 623 mmHg 62%
    12:00 +10°C° 0 mm 1 m/s 623 mmHg 60%
    13:00 +11°C° 0 mm 1 m/s 623 mmHg 58%
    14:00 +10°C° 0 mm 1 m/s 623 mmHg 61%
    15:00 +10°C° 0 mm 1 m/s 623 mmHg 64%
    16:00 +9°C° 0 mm 1 m/s 622 mmHg 67%
    17:00 +7°C° 0 mm 1 m/s 621 mmHg 76%
    18:00 +4°C° 0 mm 1 m/s 620 mmHg 84%
    19:00 +2°C° 0 mm 1 m/s 620 mmHg 92%
    20:00 0°C° 0 mm 0 m/s 620 mmHg 93%
    21:00 0°C° 0 mm 0 m/s 620 mmHg 95%
    22:00 -1°C° 0 mm 0 m/s 620 mmHg 96%
    23:00 0°C° 0 mm 0 m/s 620 mmHg 95%

    29 Martie, Miercuri

    Timp Temperatura Precipitaţii Vânt Presiune Umiditate
    00:00 +1°C° 0 mm 1 m/s 621 mmHg 95%
    01:00 +1°C° 0 mm 1 m/s 621 mmHg 95%
    02:00 +2°C° 0,1 mm 1 m/s 621 mmHg 96%
    03:00 +2°C° 0,1 mm 1 m/s 621 mmHg 96%
    04:00 +2°C° 0,1 mm 1 m/s 622 mmHg 96%
    05:00 +2°C° 0,1 mm 1 m/s 622 mmHg 96%
    06:00 +3°C° 0,1 mm 1 m/s 622 mmHg 95%
    07:00 +3°C° 0,1 mm 1 m/s 623 mmHg 95%
    08:00 +5°C° 0 mm 1 m/s 623 mmHg 87%
    09:00 +7°C° 0 mm 1 m/s 624 mmHg 79%
    10:00 +8°C° 0 mm 1 m/s 625 mmHg 72%
    11:00 +9°C° 0 mm 1 m/s 625 mmHg 67%
    12:00 +9°C° 0 mm 0 m/s 625 mmHg 63%
    13:00 +10°C° 0 mm 0 m/s 625 mmHg 59%
    14:00 +11°C° 0,1 mm 1 m/s 625 mmHg 61%
    15:00 +11°C° 0,1 mm 1 m/s 624 mmHg 63%
    16:00 +10°C° 0,1 mm 1 m/s 624 mmHg 65%
    17:00 +7°C° 0,1 mm 1 m/s 623 mmHg 74%
    18:00 +4°C° 0,1 mm 0 m/s 622 mmHg 83%
    19:00 +1°C° 0,1 mm 0 m/s 621 mmHg 92%
    20:00 +1°C° 0 mm 0 m/s 621 mmHg 92%
    21:00 0°C° 0 mm 0 m/s 620 mmHg 93%
    22:00 +1°C° 0 mm 1 m/s 620 mmHg 93%
    23:00 +1°C° 0 mm 1 m/s 621 mmHg 92%
    Arată mai mult